CZ-6A DEB

Satellite information

Favourite Embed

Satellite Type and Status

DEBRISIN ORBIT

Key statistics

Satellite CZ-6A DEB at a glance.

Uptime

1129

Days in orbit

Revolutions

≈ 14.4

Per day

Orbit

SSO

Sun Synchronous Orbit

Inclination

98.6

Latest

Satellite identification and parameters

Extended collection of information and parameters for CZ-6A DEB.

Object identification

Identified? True

Debris? True

Object name: CZ-6A DEB

International designator: 2022-151JU

Object number (NORAD): 54516

Object ID (CCSDS): 54516

Country: PEOPLES REPUBLIC OF CHINA (PRC)

Current information (Y/N): Y

RCS size: SMALL

Orbital parameters

Period: 99.827 minutes

Inclination: 98.5641 deg

SMA: 7128.407 km

Apoapsis: 847.408 km

Periapsis: 653.137 km

RAAN: 11.3787 deg

Eccentricy: 0.0136265

Argument of periapsis: 183.6549 deg

Mean anomaly: 176.3658 deg

Mean motion: 14.42493922 rev/day

Mean motion (dot): 0.00001947 rev/day2

B* drag term: 0.00053895 1/REarth

Two-line elements (TLE)

Creation date: Dec. 12, 2025, 7:16 a.m.

Reference frame: TEME

Reference center: EARTH

Epoch: Dec. 12, 2025, 12:43 a.m. UTC

TLE line 0: 0 CZ-6A DEB

TLE line 1: 1 54516U 22151JU 25346.03042524 .00001947 00000-0 53895-3 0 9996

TLE line 2: 2 54516 98.5641 11.3787 0136265 183.6549 176.3658 14.42493922161781

Live tracking on map

Real-time ground track for satellite CZ-6A DEB.

In-orbit conjunctions

A list of the most updated potential collisions computed for object CZ-6A DEB.

Target Orbit TCA Probability of collision Miss distance Type
SL-14 DEB LEO 2024-11-17 12:23:52 0.0002224621 141.0 (m) DEBRIS
SL-8 DEB * LEO 2024-11-14 12:01:31 0.000470948 587.0 (m) DEBRIS
COSMOS 1275 DEB LEO 2024-06-08 02:45:55 0.0006966109 31.0 (m) DEBRIS

Associated space launch

Chinese satellite reported for atmospheric/ocean/environmental/spatial parameter research purposes, details TBD.

CZ-6A DEB was lifted into orbit during the mission ‘Long March 6A | Yunhai 3’, on board a Long March 6A space rocket.

The launch took place on Nov. 11, 2022, 10:52 p.m. from Launch Complex 9A.

For more information about the launch, click the button.

Launch to space Long March 6A | Yunhai 3
Long March 6A | Yunhai 3

Agency: N/A

Status: Launch Successful

Launch date: Nov. 11, 2022, 10:52 p.m. UTC

Rocket: Long March 6A

Launch pad: Launch Complex 9A

Location: Taiyuan Satellite Launch Center, People's Republic of China

...

Latest news about this satellite

There are no fresh news available about this satellite. Check back as we update our databases every day.


Newsletter sign-up

Weekly statistics, charts and insights to help you stay on top of the space industry.